Location: Voyageurs National Park
(48.5020°N, 92.9292°W)
Time: 00:22:13
(UTC-05:00)

PCSat - Visible Passes

Search period start: 24 June 2018 00:00
Search period end: 04 July 2018 00:00
Orbit: 784 x 796 km, 67.0° (Epoch: 23 June)

Date Brightness Start Highest point End Pass type
(mag) Time Alt. Az. Time Alt. Az. Time Alt. Az.
24 Jun 11.3 00:10:08 10° WSW 00:15:00 33° NW 00:19:55 10° NNE visible
24 Jun 12.5 01:57:41 10° NW 02:00:09 13° NNW 02:02:38 10° N visible
24 Jun 12.8 03:44:20 10° N 03:46:07 11° N 03:47:54 10° NNE visible
24 Jun 10.0 21:55:26 10° S 22:00:29 42° ESE 22:05:34 10° NE visible
24 Jun 11.0 23:38:49 10° WSW 23:43:55 40° NW 23:49:04 10° NNE visible
25 Jun 12.5 01:25:54 10° NW 01:28:51 14° NNW 01:31:48 10° NNE visible
25 Jun 12.9 03:13:23 10° N 03:14:46 11° N 03:16:09 10° NNE visible
25 Jun 10.5 23:07:36 10° SW 23:12:52 51° NW 23:18:12 10° NNE visible
26 Jun 12.4 00:54:11 10° WNW 00:57:35 16° NNW 01:00:59 10° NNE visible
26 Jun 13.0 02:42:15 10° N 02:43:24 11° N 02:44:33 10° NNE visible
26 Jun 12.5 04:25:27 10° NNW 04:29:09 18° NNE 04:32:51 10° ENE visible
26 Jun 10.1 22:36:29 10° SW 22:41:52 65° NW 22:47:18 10° NNE visible
27 Jun 12.4 00:22:31 10° WNW 00:26:20 19° NNW 00:30:10 10° NNE visible
27 Jun 13.0 02:10:50 10° NNW 02:12:03 11° N 02:13:14 10° N visible
27 Jun 12.6 03:54:38 10° NNW 03:57:54 16° NNE 04:01:10 10° ENE visible
27 Jun 9.7 22:05:29 10° SW 22:10:54 83° NW 22:16:24 10° NE visible
27 Jun 12.2 23:50:55 10° W 23:55:07 22° NNW 23:59:21 10° NNE visible
28 Jun 13.0 01:39:11 10° NNW 01:40:41 11° N 01:42:11 10° N visible
28 Jun 12.8 03:23:49 10° NNW 03:26:38 14° NNE 03:29:25 10° NE visible
28 Jun 11.9 23:19:24 10° W 23:23:57 26° NW 23:28:31 10° NNE visible
29 Jun 12.9 01:07:24 10° NNW 01:09:20 12° NNW 01:11:16 10° N visible
29 Jun 12.9 02:52:59 10° N 02:55:18 13° NNE 02:57:37 10° NE visible
29 Jun 11.6 22:47:59 10° WSW 22:52:50 32° NW 22:57:42 10° NNE visible
30 Jun 12.9 00:35:36 10° NW 00:38:00 13° NNW 00:40:24 10° N visible
30 Jun 13.1 02:22:07 10° N 02:23:58 12° N 02:25:49 10° NNE visible
30 Jun 12.2 04:04:52 10° NNW 04:09:23 26° NE 04:13:52 10° E visible
30 Jun 11.2 22:16:39 10° WSW 22:21:44 39° NW 22:26:51 10° NNE visible
01 Jul 12.9 00:03:49 10° NW 00:06:42 14° NNW 00:09:35 10° NNE visible
01 Jul 13.2 01:51:11 10° N 01:52:37 11° N 01:54:04 10° NNE visible
01 Jul 12.4 03:34:03 10° NNW 03:38:12 22° NNE 03:42:21 10° E visible
01 Jul 12.8 23:32:05 10° WNW 23:35:25 16° NNW 23:38:45 10° NNE visible
02 Jul 13.2 01:20:06 10° N 01:21:16 11° N 01:22:26 10° NNE visible
02 Jul 12.6 03:03:14 10° NNW 03:07:00 18° NNE 03:10:45 10° ENE visible
02 Jul 12.7 23:00:24 10° WNW 23:04:09 19° NNW 23:07:56 10° NNE visible
03 Jul 13.2 00:48:43 10° NNW 00:49:54 11° N 00:51:04 10° N visible
03 Jul 12.7 02:32:25 10° NNW 02:35:45 16° NNE 02:39:04 10° ENE visible
03 Jul 10.8 04:15:11 10° NNW 04:20:29 49° NE 04:25:44 10° ESE visible
03 Jul 12.5 22:28:48 10° W 22:32:57 22° NNW 22:37:07 10° NNE visible
